FENGYUN 1C DEB, 31419

Orbit data source: Space-Track

FENGYUN 1C DEB, 31419 is space debris in SSO originally from a launch on Mon, 10 May 1999 UTC launched from the Taiyaun Space Center, China (TSC). Fengyun 1C debris stems from the Chinese weather satellite Fengyun-1C, which was intentionally destroyed by a Chinese anti-satellite missile in 2007. This event dramatically increased the amount of space debris, with thousands of trackable fragments posing hazards to satellites and human spaceflight. The Fengyun 1C debris cloud has become a focal point in discussions about space sustainability and the need for international regulations to prevent the creation of new debris.

Loading next visibility...
Identifier
31419, 1999-025BTF
Orbit
SSO
Country
Flag of CNCN / PRC
Related business
Manufacturer
Unknown
Mission
Spacecraft
Bus & Motor
Unknown
Mass
Unknown
Launch date (UTC)
1999-05-10 (27 years ago)
Launch vehicle
Unknown
Launch site
Taiyaun Space Center, China (TSC)
Object type
Payload
Rocket body
Debris
Shape & HBR
Unknown shape, 0.1 m
Radar Cross Section
Small (<0.1 m²)

Expand to show TLE details & history
Last TLE update: 4 days ago

TLE from 4 days ago
0 FENGYUN 1C DEB
1 31419U 99025BTF 26161.32586633  .00009688  00000-0  14480-2 0  9995
2 31419  98.7886 354.1913 0037988 358.6745   1.4354 14.74484634676714
Epoch: 2026-06-10T07:49Z
TLE epoch observation values (Epoch: 2026-06-10T07:49:14.850Z)
Latitude
-0.00008°
Longitude
-21.80619°
Altitude
623.09 km
Speed
7.561 km/s
True Right ascension
23h 36m 45s
True Declination
0° 00' 00"
Sunlit
Object was in daylight at epoch
Visualization orbit readout
Latitude
Unknown
Longitude
Unknown
Altitude
Unknown
Speed
Unknown
Apparent Right ascension
Unknown
Apparent Declination
Unknown
Sunlit
N/A
Visualization observer readout
Local Sidereal Time
10:52:41
Azimuth
Unknown
Elevation
Unknown
Doppler factor
Unknown
Orbital elements
Apogee altitude
670.553 km
Perigee altitude
617.203 km
Semi-major axis
7,022.015 km
Eccentricity
0.0038
Inclination
98.7886°
RAAN
354.1913°
Arg. of periapsis
358.6745°
True anomaly
1.44636°
Mean anomaly
1.4354°
Eccentric anomaly
1.44087°
Mean motion
3.68851 °/min
Orbital period
97.6 mins
BSTAR
0.001448
Loading maneuver chart data...
Computing Atmospheric mass density...

Documentation

Showing up to 5 results
|